Regional Weather Roundup
Issued by NWS Upton, NY

Current Version | Previous Version | Text Only | Print | Product List | Glossary On
Versions: 1 2 3 4 5 6 7 8 9 10 11 12 13 14 15 16 17 18 19 20 21 22 23 24 25 26 27
000
ASUS41 KOKX 010704
RWROKX

REGIONAL WEATHER ROUNDUP
NATIONAL WEATHER SERVICE NEW YORK NY
300 AM EDT SUN MAY 01 2016

NOTE: "FAIR" INDICATES FEW OR NO CLOUDS BELOW 12,000 FEET WITH NO
SIGNIFICANT WEATHER AND/OR OBSTRUCTIONS TO VISIBILITY.

NYZ071-072-176-178-NJZ106-104-010800-
NEW YORK CITY METRO AREA


CITY           SKY/WX    TMP DP  RH WIND       PRES   REMARKS
CENTRAL PARK   CLOUDY    50  33  52 SE6       30.22F
LAGUARDIA APRT CLOUDY    51  34  52 S6        30.20F
KENNEDY INTL   CLOUDY    49  38  65 SE5       30.22F
NEWARK/LIBERTY CLOUDY    51  39  63 SE6       30.19F
BRNX BOT. GARD   N/A     48  36  61 CALM      30.19F
TETERBORO      CLOUDY    50  37  61 SW3       30.19F
$$

NYZ177-179-078>081-010800-
LONG ISLAND NEW YORK

CITY           SKY/WX    TMP DP  RH WIND       PRES   REMARKS
FARMINGDALE    CLOUDY    48  39  71 SE3       30.21F
ISLIP          CLOUDY    48  37  65 S6        30.20F
SHIRLEY        CLOUDY    46  39  76 SE3       30.22F
RIVERHEAD        N/A     43  39  87 CALM      30.21F
WESTHAMPTON    CLOUDY    40  37  89 CALM      30.23F
EAST HAMPTON   FAIR      38  35  90 CALM      30.22F
MONTAUK POINT    N/A     42  38  85 CALM      30.24F
$$

NYZ052-065-067-010800-
HUDSON VALLEY

CITY           SKY/WX    TMP DP  RH WIND       PRES   REMARKS
WHITE PLAINS   CLOUDY    47  38  71 CALM      30.19F
NEWBURGH       CLOUDY    48  39  71 VRB5      30.19
MONTGOMERY     CLOUDY    48  38  68 CALM      30.18S
POUGHKEEPSIE   PTCLDY    50  38  63 SE5       30.19S
ALBANY         CLOUDY    53  37  54 S6        30.17F
$$

NJZ001-105-106-008-010-013-015-019>022-104-010800-
NEW JERSEY

CITY           SKY/WX    TMP DP  RH WIND       PRES   REMARKS
NEWARK/LIBERTY CLOUDY    51  39  63 SE6       30.19F
TETERBORO      CLOUDY    50  37  61 SW3       30.19F
CALDWELL       CLOUDY    50  38  63 CALM      30.20F
MORRISTOWN     CLOUDY    48  37  66 CALM      30.20F
SOMERVILLE     CLOUDY    48  38  68 CALM      30.18S
SUSSEX         CLOUDY    49  36  61 CALM      30.19S
ANDOVER          N/A     48  34  58 CALM      30.19S
TRENTON        CLOUDY    47  38  71 S6        30.17F
MILLVILLE      CLOUDY    47  43  86 CALM      30.18F
ATLANTIC CITY  CLOUDY    48  44  86 SE5       30.19F
WRIGHTSTOWN    CLOUDY    45  41  86 CALM      30.16F
TOMS RIVER     CLOUDY    45  37  76 CALM      30.19F
BELMAR         CLOUDY    48  42  80 SE5       30.20F
$$

PAZ047>061-062-071-010800-
EASTERN PENNSYLVANIA

CITY           SKY/WX    TMP DP  RH WIND       PRES   REMARKS
PHILADELPHIA   CLOUDY    50  38  63 S5        30.18F
ALLENTOWN      CLOUDY    51  36  56 CALM      30.17S
SCRANTON       LGT RAIN  49  45  86 CALM      30.12F
$$

CTZ002-004>006-009-010-012-RIZ004-006-007-MAZ004-011-015-010800-
SOUTHERN NEW ENGLAND
 IN CT

CITY           SKY/WX    TMP DP  RH WIND       PRES   REMARKS
BRADLEY INTL   CLOUDY    46  33  60 S6        30.21F
HARTFORD       CLOUDY    47  37  68 SE3       30.22F
DANBURY        CLOUDY    46  36  68 CALM      30.22S
WTRBRY/OXFORD    N/A     45  36  70 CALM      30.22F
BRIDGEPORT     CLOUDY    49  37  63 CALM      30.21F
MERIDEN        CLOUDY    46  37  71 CALM      30.22S
NEW HAVEN      CLOUDY    47  36  65 CALM      30.22F
CHESTER        FAIR      45  37  76 CALM      30.21F
GROTON         CLOUDY    42  42 100 CALM      30.23S
WILLIMANTIC    CLOUDY    42  35  76 CALM      30.22F

 IN RI

CITY           SKY/WX    TMP DP  RH WIND       PRES   REMARKS
PROVIDENCE     MOCLDY    42  35  76 CALM      30.24S
BLOCK ISLAND   PTCLDY    41  36  82 CALM      30.23F
WESTERLY       CLOUDY    41  36  82 CALM      30.23F

 IN MA

CITY           SKY/WX    TMP DP  RH WIND       PRES   REMARKS
BOSTON         PTCLDY    44  33  65 SW8       30.23F
WORCESTER      CLOUDY    42  26  53 SW14      30.20S
WESTFIELD      CLOUDY    45  33  63 S5        30.21S
PROVINCETOWN   PTCLDY    36  32  85 CALM      30.24F
NANTUCKET      CLOUDY    39  35  86 NE6       30.23F WCI  35
$$

ANZ330-335-338-340-345-350-353-355-010800-
COASTAL MARINE OBSERVATIONS


STATION/POSITION TIME  SKY/WX   TEMP    WIND        PRES    VSBY  WAVE
                                AIR SEA DIR/SP/G                  HT/PER
                 (UTC)          (F)     (DEG/KT/KT) (MB)    (MI)  (FT/S)
NY HARB ENTRANCE 0550            49 51  140/  8/ 10 1022.8          4/ 8
20S FIRE ISLAND  0550            47 49  130/  6/  8 1023.5          4/ 8
GREAT SOUTH BAY  0600            48 57  180/  6/  8   N/A
23 SSW MONTAUK P 0650            46 47  140/  4/  6 1022.9          4/ 8
15 E BARNEGAT LI 0622               51                N/A           5/ 8
HUDSON CANYON    0550            48 48              1023.4          5/ 8
KINGS POINT      0600            49 54              1022.8
EXECUTION ROCKS  NOT AVBL
CENTRAL LI SOUND 0600            47     180/  4/  6   N/A           0
EASTERN LI SOUND 0600            47 48  190/  4/  6   N/A
ROBBINS REEF     0600            50     140/  9/ 10 1022.2
$$


>>>>>>>>>>>>>>>>>>>>>>>>>>>> KEY <<<<<<<<<<<<<<<<<<<<<<<<<<<
>                                                          <
>     SKY/WX - SKY CONDITION/PRESENT WEATHER               <
>     TMP    - TEMPERATURE IN FAHRENHEIT                   <
>     DP     - DEWPOINT IN FAHRENHEIT                      <
>     RH     - RELATIVE HUMIDITY IN PERCENT                <
>     WIND   - DIRECTION AND SPEED IN MPH                  <
>     PRES   - MEAN SEA LEVEL PRESSURE IN INCHES OF HG     <
>     WCI    - WIND CHILL INDEX                            <
>     VSB    - VISIBILITY IN MILES                         <
>     HX     - HEAT INDEX                                  <
>     TC     - TEMPERATURE IN CELSIUS                      <
>     VRB    - VARIABLE WIND DIRECTION                     <
>                                                          <
>>>>>>>>>>>>>>>>>>>>>>>>>>>> KEY <<<<<<<<<<<<<<<<<<<<<<<<<<<






USA.gov is the U.S. government's official web portal to all federal, state and local government web resources and services.